New Roads False River Regiona, LA

1:19 AM CDT on September 18, 2019 (GMT -0500)
False River

Weather History for KHZR - July, 2019

Change the Weather History Date:

Tuesday, July 9, 2019

  Actual Average (WUND) Record (WUND)
Temperature  
Mean Temperature 86 °F -  
Max Temperature 93 °F - - (-1)
Min Temperature 80 °F - - (-1)
Cooling Degree Days 22    
Growing Degree Days 36 (Base 50)    
Moisture  
Dew Point 74 °F    
Average Humidity 63    
Maximum Humidity 89    
Minimum Humidity 49    
Precipitation  
Precipitation 0.00 in - - ()
Sea Level Pressure  
Sea Level Pressure 29.96 in    
Wind  
Wind Speed 4 mph (NW)    
Max Wind Speed 9 mph    
Max Gust Speed -    
Visibility 10 miles    
Events      
Averages and records for this station are not official NWS values.
T = Trace of Precipitation, MM = Missing Value Source: NWS Daily Summary

Daily Weather History Graph

Daily Weather History Graph

Search for Another Location

Airport or City:

Astronomy

Jul. 09, 2019 Rise Set
Actual Time 6:10 AM CDT 8:11 PM CDT
Civil Twilight 5:42 AM CDT 8:39 PM CDT
Nautical Twilight 5:09 AM CDT 9:12 PM CDT
Astronomical Twilight 4:33 AM CDT 9:47 PM CDT
Moon 1:31 PM CDT (7/9) 12:55 AM CDT (7/9)
Length of Visible Light 14h 56m
Length of Day
14h 01m
First Quarter, 53% of the Moon is Illuminated
Jul 9
First Quarter
Jul 16
Full
Jul 24
Last Quarter
Jul 31
New
Aug 7
First Quarter

Hourly Weather History & Observations

Time (CDT) Temp. Heat Index Dew Point Humidity Pressure Visibility Wind Dir Wind Speed Gust Speed Precip Events Conditions
10:15 AM 87.8 °F 97.6 °F 75.2 °F 66% 30.02 in 10.0 mi North 3.5 mph - N/A   Clear
10:34 AM 87.8 °F 95.6 °F 73.4 °F 62% 30.01 in 10.0 mi West 8.1 mph - N/A   Clear
10:54 AM 87.8 °F 95.6 °F 73.4 °F 62% 30.01 in 10.0 mi NNW 4.6 mph - N/A   Clear
11:14 AM 87.8 °F 95.6 °F 73.4 °F 62% 30.01 in 10.0 mi NW 4.6 mph - N/A   Clear
11:34 AM 89.6 °F 99.8 °F 75.2 °F 62% 30.01 in 10.0 mi NW 3.5 mph - N/A   Clear
11:56 AM 89.6 °F 99.8 °F 75.2 °F 62% 30.01 in 10.0 mi NW 6.9 mph - N/A   Clear
12:16 PM 89.6 °F 99.8 °F 75.2 °F 62% 30.01 in 10.0 mi WNW 5.8 mph - N/A   Clear
12:34 PM 89.6 °F 99.8 °F 75.2 °F 62% 30.00 in 10.0 mi Calm Calm - N/A   Clear
12:54 PM 91.4 °F 102.5 °F 75.2 °F 59% 30.00 in 10.0 mi NW 4.6 mph - N/A   Clear
1:14 PM 91.4 °F 102.5 °F 75.2 °F 59% 29.99 in 10.0 mi NW 9.2 mph - N/A   Clear
1:36 PM 91.4 °F 100.1 °F 73.4 °F 55% 29.99 in 10.0 mi North 3.5 mph - N/A   Clear
1:54 PM 93.2 °F 105.0 °F 75.2 °F 56% 29.98 in 10.0 mi NW 6.9 mph - N/A   Clear
2:14 PM 91.4 °F 100.1 °F 73.4 °F 55% 29.97 in 10.0 mi North 5.8 mph - N/A   Clear
2:36 PM 93.2 °F 102.4 °F 73.4 °F 52% 29.97 in 10.0 mi North 5.8 mph - N/A   Clear
2:55 PM 93.2 °F 102.4 °F 73.4 °F 52% 29.96 in 10.0 mi NNW 6.9 mph - N/A   Clear
3:14 PM 91.4 °F 100.1 °F 73.4 °F 55% 29.95 in 10.0 mi NNW 6.9 mph - N/A   Clear
3:34 PM 93.2 °F 102.4 °F 73.4 °F 52% 29.95 in 10.0 mi NNW 6.9 mph - N/A   Clear
3:54 PM 93.2 °F 100.5 °F 71.6 °F 49% 29.94 in 10.0 mi NW 5.8 mph - N/A   Clear
4:14 PM 93.2 °F 102.4 °F 73.4 °F 52% 29.94 in 10.0 mi WNW 4.6 mph - N/A   Clear
4:34 PM 93.2 °F 102.4 °F 73.4 °F 52% 29.93 in 10.0 mi NW 4.6 mph - N/A   Clear
4:54 PM 93.2 °F 102.4 °F 73.4 °F 52% 29.93 in 10.0 mi NW 6.9 mph - N/A   Clear
5:17 PM 93.2 °F 102.4 °F 73.4 °F 52% 29.92 in 10.0 mi NNW 5.8 mph - N/A   Clear
5:34 PM 93.2 °F 100.5 °F 71.6 °F 49% 29.92 in 10.0 mi North 3.5 mph - N/A   Clear
5:54 PM 93.2 °F 100.5 °F 71.6 °F 49% 29.91 in 10.0 mi NNW 4.6 mph - N/A   Clear
6:14 PM 93.2 °F 100.5 °F 71.6 °F 49% 29.91 in 10.0 mi NW 4.6 mph - N/A   Clear
6:56 PM 91.4 °F 100.1 °F 73.4 °F 55% 29.92 in 10.0 mi NW 3.5 mph - N/A   Clear
7:16 PM 91.4 °F 100.1 °F 73.4 °F 55% 29.92 in 10.0 mi Calm Calm - N/A   Clear
7:34 PM 89.6 °F 98.2 °F 73.4 °F 59% 29.92 in 10.0 mi Calm Calm - N/A   Clear
7:54 PM 89.6 °F 98.2 °F 73.4 °F 59% 29.93 in 10.0 mi Calm Calm - N/A   Clear
8:17 PM 87.8 °F 97.6 °F 75.2 °F 66% 29.93 in 10.0 mi Calm Calm - N/A   Clear
8:34 PM 84.2 °F 92.3 °F 75.2 °F 74% 29.94 in 10.0 mi Calm Calm - N/A   Clear
8:54 PM 84.2 °F 92.3 °F 75.2 °F 74% 29.94 in 10.0 mi Calm Calm - N/A   Clear
9:14 PM 82.4 °F 90.9 °F 77.0 °F 84% 29.95 in 10.0 mi Calm Calm - N/A   Clear
9:34 PM 82.4 °F 89.5 °F 75.2 °F 79% 29.96 in 10.0 mi South 3.5 mph - N/A   Clear
9:54 PM 82.4 °F 89.5 °F 75.2 °F 79% 29.96 in 10.0 mi Calm Calm - N/A   Clear
10:14 PM 82.4 °F 89.5 °F 75.2 °F 79% 29.95 in 10.0 mi SW 3.5 mph - N/A   Clear
10:36 PM 80.6 °F 87.1 °F 77.0 °F 89% 29.95 in 10.0 mi SW 3.5 mph - N/A   Clear
11:14 PM 80.6 °F 87.1 °F 77.0 °F 89% 29.96 in 10.0 mi WSW 4.6 mph - N/A   Clear
11:34 PM 80.6 °F 87.1 °F 77.0 °F 89% 29.96 in 10.0 mi Calm Calm - N/A   Clear
11:54 PM 80.6 °F 87.1 °F 77.0 °F 89% 29.96 in 10.0 mi WSW 3.5 mph - N/A   Clear